GW6324 Weather Reports


time (UTC)temp
C
wind
direction
speed
KPH
gust
KPH
rain 1hr
cm
rain 24hr
cm
rain mn
cm
humidity
%
barometer
mb
20260902231541 33 276 3.2 6.4 0.00 0.00 0.00 56 1015.9
20260902230038 34 232 3.2 6.4 0.00 0.00 0.00 54 1016.0
20260902224538 35 253 3.2 9.7 0.00 0.00 0.00 54 1016.0
20260902223040 35 256 3.2 8.0 0.00 0.00 0.00 55 1016.0
20260902221540 35 252 3.2 11.3 0.00 0.00 0.00 52 1016.2
20260902220041 35 229 4.8 12.9 0.00 0.00 0.00 51 1016.2
20260902214541 35 263 4.8 12.9 0.00 0.00 0.00 50 1016.1
20260902213038 36 286 3.2 9.7 0.00 0.00 0.00 48 1016.2
20260902211540 36 267 4.8 12.9 0.00 0.00 0.00 47 1016.3
20260902210039 36 239 3.2 12.9 0.00 0.00 0.00 48 1016.2
20260902204540 35 131 3.2 9.7 0.00 0.00 0.00 49 1016.4
20260902203039 36 254 4.8 16.1 0.00 0.00 0.00 49 1016.5
20260902201550 36 238 4.8 11.3 0.00 0.00 0.00 48 1016.7
20260902200041 36 254 3.2 11.3 0.00 0.00 0.00 49 1016.7
20260902194537 36 181 3.2 14.5 0.00 0.00 0.00 48 1017.0
20260902193040 35 304 3.2 11.3 0.00 0.00 0.00 49 1017.1
20260902191539 36 267 6.4 11.3 0.00 0.00 0.00 47 1017.3
20260902190047 36 250 4.8 14.5 0.00 0.00 0.00 46 1017.4
20260902184542 35 227 6.4 12.9 0.00 0.00 0.00 46 1017.4
20260902183042 35 249 4.8 11.3 0.00 0.00 0.00 49 1017.6
20260902181550 35 295 3.2 16.1 0.00 0.00 0.00 49 1017.7
20260902180043 35 323 6.4 14.5 0.00 0.00 0.00 48 1017.8
20260902174542 35 269 6.4 14.5 0.00 0.00 0.00 52 1018.0
20260902173050 35 283 6.4 17.7 0.00 0.00 0.00 52 1018.1
20260902171602 34 173 4.8 14.5 0.00 0.00 0.00 55 1018.3
20260902170042 33 265 4.8 11.3 0.00 0.00 0.00 58 1018.3
20260902164538 32 229 4.8 12.9 0.00 0.00 0.00 62 1018.3
20260902163045 32 253 3.2 17.7 0.00 0.00 0.00 62 1018.5
20260902161543 31 271 3.2 8.0 0.00 0.00 0.00 66 1018.5
20260902160047 31 238 4.8 11.3 0.00 0.00 0.00 66 1018.7
20260902154555 30 283 4.8 14.5 0.00 0.00 0.00 66 1018.8
20260902153044 30 294 3.2 8.0 0.00 0.00 0.00 72 1018.9
20260902151543 29 238 1.6 8.0 0.00 0.00 0.00 72 1018.9
20260902150044 28 242 1.6 9.7 0.00 0.00 0.00 74 1018.9
20260902144546 28 243 3.2 8.0 0.00 0.00 0.00 76 1018.8
20260902143047 27 252 3.2 8.0 0.00 0.00 0.00 77 1018.8
20260902141546 27 256 3.2 11.3 0.00 0.00 0.00 78 1018.9
20260902140043 26 258 3.2 9.7 0.00 0.00 0.00 79 1018.8
20260902134550 26 304 3.2 9.7 0.00 0.00 0.00 79 1018.8
20260902133052 26 248 3.2 9.7 0.00 0.00 0.00 80 1018.9
20260902131548 25 287 3.2 9.7 0.00 0.00 0.00 81 1018.8
20260902130038 25 251 3.2 11.3 0.00 0.00 0.00 81 1018.8
20260902124538 25 259 3.2 8.0 0.00 0.00 0.00 81 1018.8
20260902123037 25 261 1.6 6.4 0.00 0.00 0.00 82 1018.6
20260902121537 24 0 0.0 3.2 0.00 0.00 0.00 85 1018.4
20260902120044 23 258 0.0 3.2 0.00 0.00 0.00 86 1018.3
20260902114550 23 258 0.0 3.2 0.00 0.00 0.00 86 1018.2
20260902113038 23 0 0.0 3.2 0.00 0.00 0.00 85 1018.1
20260902111544 23 0 0.0 1.6 0.00 0.00 0.00 83 1018.0
20260902110056 23 0 0.0 3.2 0.00 0.00 0.00 83 1017.9
20260902104537 23 0 0.0 3.2 0.00 0.00 0.00 83 1018.0
20260902103040 23 242 1.6 3.2 0.00 0.00 0.00 83 1017.8
20260902101540 23 240 0.0 3.2 0.00 0.00 0.00 84 1017.9
20260902100039 24 0 0.0 0.0 0.00 0.00 0.00 82 1017.8
20260902094657 24 0 0.0 3.2 0.00 0.00 0.00 82 1017.8
20260902091535 24 244 1.6 4.8 0.00 0.00 0.00 81 1017.7
20260902090039 25 248 1.6 4.8 0.00 0.00 0.00 81 1017.5
20260902084542 25 254 1.6 6.4 0.00 0.00 0.00 80 1017.4
20260902083039 25 253 1.6 6.4 0.00 0.00 0.00 80 1017.2
20260902081541 25 227 3.2 6.4 0.00 0.00 0.00 81 1017.1
20260902080044 25 240 0.0 3.2 0.00 0.00 0.00 81 1017.0
20260902074538 25 249 1.6 4.8 0.00 0.00 0.00 81 1016.8
20260902073036 25 238 1.6 6.4 0.00 0.00 0.00 82 1016.9
20260902071538 25 233 1.6 4.8 0.00 0.00 0.00 81 1016.9
20260902070038 25 244 1.6 3.2 0.00 0.00 0.00 81 1017.0
20260902064540 25 242 1.6 3.2 0.00 0.00 0.00 81 1016.9
20260902063038 25 257 0.0 3.2 0.00 0.00 0.00 81 1017.0
20260902061604 25 257 0.0 3.2 0.00 0.00 0.00 80 1017.1
20260902060038 25 0 0.0 3.2 0.00 0.00 0.00 79 1017.1
20260902054549 26 0 0.0 3.2 0.00 0.00 0.00 78 1017.1
20260902053037 26 250 1.6 4.8 0.00 0.00 0.00 78 1017.1
20260902051541 26 246 0.0 4.8 0.00 0.00 0.00 78 1017.1
20260902050038 25 238 1.6 3.2 0.00 0.00 0.00 79 1017.2
20260902044540 25 0 0.0 3.2 0.00 0.00 0.00 78 1017.2
20260902043047 26 0 0.0 3.2 0.00 0.00 0.00 78 1017.1
20260902041542 26 0 0.0 3.2 0.00 0.00 0.00 77 1017.1
20260902040041 26 243 0.0 3.2 0.00 0.00 0.00 76 1017.1
20260902034539 26 246 0.0 3.2 0.00 0.00 0.00 76 1017.1
20260902033049 26 233 0.0 3.2 0.00 0.00 0.00 76 1017.1
20260902031540 26 0 0.0 3.2 0.00 0.00 0.00 75 1017.1
20260902030045 26 237 1.6 3.2 0.00 0.00 0.00 75 1017.2
20260902024539 27 238 0.0 3.2 0.00 0.00 0.00 74 1017.2
20260902023041 27 244 0.0 3.2 0.00 0.00 0.00 73 1017.2
20260902021539 27 0 0.0 3.2 0.00 0.00 0.00 73 1017.1
20260902020042 27 0 0.0 3.2 0.00 0.00 0.00 72 1017.1
20260902014537 27 0 0.0 3.2 0.00 0.00 0.00 72 1017.2
20260902013041 27 0 0.0 3.2 0.00 0.00 0.00 72 1016.9
20260902011539 28 246 0.0 3.2 0.00 0.00 0.00 71 1016.7
20260902010046 28 246 0.0 3.2 0.00 0.00 0.00 70 1016.6
20260902004539 28 246 1.6 1.6 0.00 0.00 0.00 69 1016.5
20260902003038 30 0 0.0 3.2 0.00 0.00 0.00 67 1016.6
20260902001540 31 0 0.0 3.2 0.00 0.00 0.00 63 1016.7
20260902000040 31 242 0.0 4.8 0.00 0.00 0.00 61 1016.6
20260901234537 32 235 0.0 3.2 0.00 0.00 0.00 59 1016.7
20260901233042 33 248 0.0 3.2 0.00 0.00 0.00 57 1016.8